,,PA_Meas_PMT16A,,PR_Meas_QMR101_102,,RH_Meas_QMH101,,SR_Meas_QMS101,,TA_Meas_QMH101,,GenWind,,GenWind,
time,status,PA,status,PR,status,RH,status,SR,status,TA,status,DirAvg,status,SpdAvg,
2016-12-29, 14:17:04,VALID,917.697,VALID,0,INVALID,125.314,VALID,166.534,VALID,19.1012,VALID,162,VALID,1.79297,
2016-12-29, 14:18:04,VALID,917.706,VALID,0,INVALID,125.42,VALID,181.683,VALID,19.1987,VALID,163,VALID,1.96016,
2016-12-29, 14:19:04,VALID,917.763,VALID,0,INVALID,124.437,VALID,192.105,VALID,19.2558,VALID,157,VALID,2.55,
2016-12-29, 14:20:04,VALID,917.732,VALID,0,INVALID,123.835,VALID,168.897,VALID,19.3533,VALID,153,VALID,2.40742,
2016-12-29, 14:22:04,VALID,917.747,VALID,0,INVALID,123.766,VALID,158.583,VALID,19.4523,VALID,146,VALID,2.7543,
2016-12-29, 14:25:04,VALID,917.808,VALID,0,INVALID,123.698,VALID,196.295,VALID,19.4703,VALID,148,VALID,2.34375,
2016-12-29, 14:26:04,VALID,917.761,VALID,0,INVALID,122.447,VALID,195.435,VALID,19.4703,VALID,160,VALID,2.97891,
2016-12-29, 14:27:04,VALID,917.792,VALID,0,INVALID,123.057,VALID,212.411,VALID,19.5468,VALID,158,VALID,1.7,
2016-12-29, 14:29:04,VALID,917.815,VALID,0,INVALID,113.528,VALID,161.377,VALID,19.6653,VALID,150,VALID,2.97266,
2016-12-29, 14:30:04,VALID,917.847,VALID,0,INVALID,114.527,VALID,189.204,VALID,19.6458,VALID,162,VALID,3.0543,
2016-12-29, 14:31:04,VALID,917.837,VALID,0,INVALID,116.928,VALID,178.03,VALID,19.6068,VALID,153,VALID,2.76797,
2016-12-29, 14:32:04,VALID,917.881,VALID,0,INVALID,117.629,VALID,185.981,VALID,19.6443,VALID,157,VALID,2.46719,
2016-12-29, 14:33:04,VALID,917.878,VALID,0,INVALID,115.228,VALID,181.898,VALID,19.6833,VALID,160,VALID,2.43359,
2016-12-29, 14:34:04,VALID,917.897,VALID,0,INVALID,115.075,VALID,253.991,VALID,19.7628,VALID,151,VALID,2.12656,
2016-12-29, 14:35:04,VALID,917.906,VALID,0,INVALID,114.283,VALID,279.24,VALID,19.8993,VALID,149,VALID,2.44492,
2016-12-29, 14:36:04,VALID,917.901,VALID,0,VALID,97.3434,VALID,281.173,VALID,19.9773,VALID,144,VALID,2.81641,
2016-12-29, 14:37:04,VALID,917.896,VALID,0,VALID,104,VALID,286.331,VALID,20.0733,VALID,149,VALID,2.37148,
2016-12-29, 14:38:04,VALID,917.912,VALID,0,VALID,97.0385,VALID,296.215,VALID,20.1724,VALID,149,VALID,2.71719,
2016-12-29, 14:39:04,VALID,917.915,VALID,0,VALID,93.6613,VALID,309.538,VALID,20.2293,VALID,148,VALID,2.99336,
2016-12-29, 14:40:04,VALID,917.926,VALID,0,VALID,96.6497,VALID,318.885,VALID,20.3089,VALID,157,VALID,3.02422,
2016-12-29, 14:41:04,VALID,917.928,VALID,0,VALID,104,VALID,325.547,VALID,20.3448,VALID,152,VALID,2.48125,
2016-12-29, 14:42:04,VALID,917.924,VALID,0,VALID,95.7958,VALID,329.952,VALID,20.4439,VALID,151,VALID,2.65352,
2016-12-29, 14:43:04,VALID,917.932,VALID,0,VALID,96.3295,VALID,333.605,VALID,20.5414,VALID,143,VALID,2.60625,
2016-12-29, 14:44:04,VALID,917.913,VALID,0,VALID,91.0465,VALID,337.688,VALID,20.6194,VALID,165,VALID,3.3543,
2016-12-29, 14:45:04,VALID,917.93,VALID,0,VALID,89.0339,VALID,341.018,VALID,20.6975,VALID,155,VALID,3.20664,
2016-12-29, 14:46:04,VALID,917.957,VALID,0,VALID,88.3935,VALID,345.638,VALID,20.717,VALID,150,VALID,2.84141,
2016-12-29, 14:47:04,VALID,917.944,VALID,0,VALID,86.8917,VALID,349.936,VALID,20.7755,VALID,147,VALID,3.67539,
2016-12-29, 14:48:04,VALID,917.981,VALID,0,VALID,86.7468,VALID,353.052,VALID,20.8535,VALID,151,VALID,1.50937,
2016-12-29, 14:49:04,VALID,917.958,VALID,0,VALID,85.9388,VALID,355.953,VALID,20.9901,VALID,163,VALID,2.88711,
2016-12-29, 14:50:04,VALID,918.007,VALID,0,VALID,85.1459,VALID,358.961,VALID,21.0892,VALID,165,VALID,2.42695,
2016-12-29, 14:51:04,VALID,918.03,VALID,0,VALID,84.6885,VALID,360.68,VALID,21.1266,VALID,140,VALID,2.10664,
2016-12-29, 14:52:04,VALID,918.021,VALID,0,VALID,84.9553,VALID,364.548,VALID,21.1852,VALID,179,VALID,1.76602,
2016-12-29, 14:53:04,VALID,918.068,VALID,0,VALID,84.4979,VALID,366.912,VALID,21.2632,VALID,148,VALID,2.63672,
2016-12-29, 14:54:04,VALID,918.073,VALID,0,VALID,84.6809,VALID,369.812,VALID,21.2632,VALID,143,VALID,2.91367,
2016-12-29, 14:55:04,VALID,918.113,VALID,0,VALID,85.2755,VALID,374.11,VALID,21.3217,VALID,153,VALID,2.53945,
2016-12-29, 14:56:04,VALID,918.106,VALID,0,VALID,83.2858,VALID,378.945,VALID,21.3412,VALID,172,VALID,2.71055,
2016-12-29, 14:57:04,VALID,918.138,VALID,0,VALID,83.2401,VALID,376.689,VALID,21.3998,VALID,161,VALID,2.88359,
2016-12-29, 14:58:04,VALID,918.133,VALID,0,VALID,83.3392,VALID,365.192,VALID,21.4778,VALID,162,VALID,2.26289,
2016-12-29, 14:59:04,VALID,918.106,VALID,0,VALID,83.2858,VALID,360.895,VALID,21.5152,VALID,166,VALID,2.81484,
2016-12-29, 15:00:04,VALID,918.099,VALID,0,VALID,82.897,VALID,338.977,VALID,21.5754,VALID,137,VALID,2.425,
2016-12-29, 15:01:04,VALID,918.115,VALID,0,VALID,81.7916,VALID,314.695,VALID,21.5363,VALID,152,VALID,3.10391,
2016-12-29, 15:02:04,VALID,918.148,VALID,0,VALID,82.6378,VALID,288.479,VALID,21.5168,VALID,155,VALID,2.17539,
2016-12-29, 15:03:04,VALID,918.113,VALID,0,VALID,81.1589,VALID,286.868,VALID,21.4372,VALID,158,VALID,2.89258,
2016-12-29, 15:04:04,VALID,918.161,VALID,0,VALID,83.3163,VALID,289.769,VALID,21.4388,VALID,155,VALID,2.38477,
2016-12-29, 15:05:04,VALID,918.191,VALID,0,VALID,83.3621,VALID,295.463,VALID,21.4372,VALID,150,VALID,2.74336,
2016-12-29, 15:06:04,VALID,918.169,VALID,0,VALID,81.0445,VALID,349.721,VALID,21.3981,VALID,145,VALID,1.78594,
2016-12-29, 15:07:04,VALID,918.17,VALID,0,VALID,82.1118,VALID,348.754,VALID,21.4973,VALID,148,VALID,1.57773,
2016-12-29, 15:08:04,VALID,918.212,VALID,0,VALID,82.3634,VALID,369.812,VALID,21.5932,VALID,165,VALID,2.01719,
2016-12-29, 15:09:04,VALID,918.225,VALID,0,VALID,81.3342,VALID,367.126,VALID,21.7493,VALID,152,VALID,1.54609,
2016-12-29, 15:10:04,VALID,918.252,VALID,0,VALID,80.5643,VALID,392.375,VALID,21.751,VALID,153,VALID,2.00078,
2016-12-29, 15:11:04,VALID,918.281,VALID,0,VALID,82.2795,VALID,389.689,VALID,21.8274,VALID,141,VALID,1.90977,
2016-12-29, 15:12:04,VALID,918.238,VALID,0,VALID,80.3813,VALID,335.109,VALID,21.9233,VALID,146,VALID,2.38008,
2016-12-29, 15:13:04,VALID,918.277,VALID,0,VALID,79.9849,VALID,345.961,VALID,22.003,VALID,144,VALID,1.6582,
2016-12-29, 15:14:04,VALID,918.273,VALID,0,VALID,82.8818,VALID,363.688,VALID,22.1413,VALID,110,VALID,1.56602,
2016-12-29, 15:15:04,VALID,918.273,VALID,0,VALID,80.671,VALID,396.673,VALID,22.2567,VALID,154,VALID,1.86875,
2016-12-29, 15:16:04,VALID,918.287,VALID,0,VALID,80.8082,VALID,400.111,VALID,22.2371,VALID,162,VALID,1.84141,
2016-12-29, 15:17:04,VALID,918.281,VALID,0,VALID,80.9988,VALID,343.382,VALID,22.395,VALID,169,VALID,1.33242,
2016-12-29, 15:18:04,VALID,918.289,VALID,0,VALID,76.8745,VALID,364.011,VALID,22.434,VALID,133,VALID,1.62812,
2016-12-29, 15:19:04,VALID,918.331,VALID,0,VALID,79.3293,VALID,373.251,VALID,22.473,VALID,134,VALID,1.90937,
2016-12-29, 15:20:04,VALID,918.32,VALID,0,VALID,78.1629,VALID,378.408,VALID,22.3559,VALID,155,VALID,1.88672,
2016-12-29, 15:21:04,VALID,918.35,VALID,0,VALID,79.8782,VALID,380.557,VALID,22.2762,VALID,169,VALID,1.15625,
2016-12-29, 15:22:04,VALID,918.335,VALID,0,VALID,79.0777,VALID,405.698,VALID,22.3152,VALID,167,VALID,1.89141,
2016-12-29, 15:23:04,VALID,918.35,VALID,0,VALID,77.2023,VALID,373.358,VALID,22.3737,VALID,153,VALID,1.85273,
2016-12-29, 15:24:04,VALID,918.413,VALID,0,VALID,78.1705,VALID,369.49,VALID,22.4128,VALID,148,VALID,2.12734,
2016-12-29, 15:25:04,VALID,918.405,VALID,0,VALID,79.0015,VALID,393.772,VALID,22.3933,VALID,124,VALID,1.43867,
2016-12-29, 15:26:04,VALID,918.425,VALID,0,VALID,78.4983,VALID,415.26,VALID,22.333,VALID,151,VALID,2.52031,
2016-12-29, 15:27:04,VALID,918.448,VALID,0,VALID,79.8705,VALID,402.904,VALID,22.3542,VALID,137,VALID,2.58828,
2016-12-29, 15:28:04,VALID,918.46,VALID,0,VALID,78.3001,VALID,378.945,VALID,22.3347,VALID,134,VALID,2.85078,
2016-12-29, 15:29:04,VALID,918.432,VALID,0,VALID,77.9266,VALID,393.02,VALID,22.3152,VALID,139,VALID,1.60156,
2016-12-29, 15:30:04,VALID,918.452,VALID,0,VALID,77.5149,VALID,418.698,VALID,22.3737,VALID,140,VALID,2.76055,
2016-12-29, 15:31:04,VALID,918.444,VALID,0,VALID,79.7943,VALID,429.765,VALID,22.4323,VALID,150,VALID,2.24844,
2016-12-29, 15:32:04,VALID,918.467,VALID,0,VALID,77.614,VALID,416.12,VALID,22.4518,VALID,126,VALID,2.76523,
2016-12-29, 15:33:04,VALID,918.459,VALID,0,VALID,78.5822,VALID,437.178,VALID,22.4908,VALID,145,VALID,2.31172,
2016-12-29, 15:34:04,VALID,918.472,VALID,0,VALID,77.4234,VALID,445.558,VALID,22.4891,VALID,151,VALID,3.04805,
2016-12-29, 15:35:04,VALID,918.471,VALID,0,VALID,80.0001,VALID,436.319,VALID,22.4696,VALID,171,VALID,2.43477,
2016-12-29, 15:36:04,VALID,918.534,VALID,0,VALID,78.0104,VALID,459.848,VALID,22.5867,VALID,147,VALID,2.70547,
2016-12-29, 15:37:04,VALID,918.513,VALID,0,VALID,77.2481,VALID,465.865,VALID,22.5086,VALID,166,VALID,2.95273,
2016-12-29, 15:38:04,VALID,918.51,VALID,0,VALID,76.9431,VALID,483.055,VALID,22.4891,VALID,127,VALID,3.54609,
2016-12-29, 15:39:04,VALID,918.521,VALID,0,VALID,79.2607,VALID,481.551,VALID,22.6079,VALID,133,VALID,2.80664,
2016-12-29, 15:40:04,VALID,918.534,VALID,0,VALID,78.7499,VALID,479.08,VALID,22.7428,VALID,151,VALID,2.96016,
2016-12-29, 15:41:04,VALID,918.548,VALID,0,VALID,76.8364,VALID,487.568,VALID,22.8421,VALID,118,VALID,2.76719,
2016-12-29, 15:42:04,VALID,918.533,VALID,0,VALID,76.4476,VALID,493.155,VALID,22.8989,VALID,163,VALID,1.80781,
2016-12-29, 15:43:04,VALID,918.563,VALID,0,VALID,75.6014,VALID,496.486,VALID,22.9185,VALID,154,VALID,3.12773,
2016-12-29, 15:44:04,VALID,918.556,VALID,0,VALID,78.7499,VALID,488.427,VALID,22.8014,VALID,131,VALID,1.83008,
2016-12-29, 15:45:04,VALID,918.578,VALID,0,VALID,77.5378,VALID,481.981,VALID,22.9185,VALID,135,VALID,2.25078,
2016-12-29, 15:46:04,VALID,918.592,VALID,0,VALID,77.1261,VALID,473.923,VALID,22.938,VALID,129,VALID,2.30156,
2016-12-29, 15:47:04,VALID,918.589,VALID,0,VALID,76.0283,VALID,478.973,VALID,22.977,VALID,128,VALID,3.12266,
2016-12-29, 15:48:04,VALID,918.581,VALID,0,VALID,73.8023,VALID,481.766,VALID,22.9965,VALID,151,VALID,3.28047,
2016-12-29, 15:49:04,VALID,918.585,VALID,0,VALID,76.501,VALID,460.385,VALID,23.0178,VALID,105,VALID,2.10781,
2016-12-29, 15:50:04,VALID,918.545,VALID,0,VALID,75.5404,VALID,456.303,VALID,23.0373,VALID,176,VALID,1.7418,
2016-12-29, 15:51:04,VALID,918.569,VALID,0,VALID,75.9597,VALID,426.004,VALID,23.0356,VALID,126,VALID,3.44375,
2016-12-29, 15:52:04,VALID,918.553,VALID,0,VALID,75.4642,VALID,395.706,VALID,22.9575,VALID,141,VALID,2.29766,
2016-12-29, 15:53:04,VALID,918.573,VALID,0,VALID,76.6153,VALID,526.032,VALID,22.977,VALID,115,VALID,1.66602,
2016-12-29, 15:54:04,VALID,918.576,VALID,0,VALID,74.9839,VALID,508.089,VALID,23.1331,VALID,137,VALID,2.59687,
2016-12-29, 15:55:04,VALID,918.556,VALID,0,VALID,74.4808,VALID,484.022,VALID,23.1509,VALID,149,VALID,2.73086,
2016-12-29, 15:56:04,VALID,918.565,VALID,0,VALID,73.5355,VALID,458.989,VALID,23.1917,VALID,132,VALID,2.80625,
2016-12-29, 15:57:04,VALID,918.592,VALID,0,VALID,76.2799,VALID,386.466,VALID,23.1331,VALID,132,VALID,2.00195,
2016-12-29, 15:58:04,VALID,918.574,VALID,0,VALID,74.5951,VALID,456.84,VALID,23.3283,VALID,149,VALID,1.90078,
2016-12-29, 15:59:04,VALID,918.582,VALID,0,VALID,73.1848,VALID,466.724,VALID,23.3674,VALID,130,VALID,3.21953,
2016-12-29, 16:00:04,VALID,918.605,VALID,0,VALID,73.2991,VALID,571.157,VALID,23.3478,VALID,168,VALID,3.09023,
2016-12-29, 16:01:04,VALID,918.638,VALID,0,VALID,75.2736,VALID,478.113,VALID,23.1917,VALID,147,VALID,3.47656,
2016-12-29, 16:02:04,VALID,918.667,VALID,0,VALID,75.6777,VALID,538.388,VALID,23.2893,VALID,121,VALID,2.51367,
2016-12-29, 16:03:04,VALID,918.639,VALID,0,VALID,76.4019,VALID,529.255,VALID,23.2094,VALID,98,VALID,2.71406,
2016-12-29, 16:04:04,VALID,918.697,VALID,0,VALID,73.8175,VALID,540.644,VALID,23.2094,VALID,139,VALID,2.85625,
2016-12-29, 16:05:04,VALID,918.685,VALID,0,VALID,72.8341,VALID,480.155,VALID,23.2112,VALID,137,VALID,2.22813,
2016-12-29, 16:06:04,VALID,918.681,VALID,0,VALID,76.5162,VALID,499.601,VALID,23.3656,VALID,125,VALID,2.20664,
2016-12-29, 16:07:04,VALID,918.701,VALID,0,VALID,73.7337,VALID,474.03,VALID,23.465,VALID,146,VALID,2.6,
2016-12-29, 16:08:04,VALID,918.7,VALID,0,VALID,71.9955,VALID,432.128,VALID,23.5803,VALID,169,VALID,2.12266,
2016-12-29, 16:09:04,VALID,918.742,VALID,0,VALID,73.7947,VALID,200.593,VALID,23.7169,VALID,109,VALID,1.82422,
2016-12-29, 16:10:04,VALID,918.752,VALID,0,VALID,73.8099,VALID,167.071,VALID,23.756,VALID,128,VALID,2.27422,
2016-12-29, 16:11:04,VALID,918.762,VALID,0,VALID,71.744,VALID,311.794,VALID,23.6779,VALID,121,VALID,2.05312,
2016-12-29, 16:12:04,VALID,918.779,VALID,0,VALID,74.5646,VALID,272.686,VALID,23.7169,VALID,134,VALID,1.53125,
2016-12-29, 16:13:04,VALID,918.807,VALID,0,VALID,73.1009,VALID,183.402,VALID,23.9316,VALID,139,VALID,0.890234,
2016-12-29, 16:14:04,VALID,918.788,VALID,0,VALID,70.5776,VALID,175.774,VALID,23.7364,VALID,146,VALID,2.69414,
2016-12-29, 16:15:04,VALID,918.79,VALID,0,VALID,72.9408,VALID,189.204,VALID,23.4632,VALID,85,VALID,1.70117,
2016-12-29, 16:16:04,VALID,918.812,VALID,0,VALID,74.3436,VALID,207.147,VALID,23.307,VALID,107,VALID,2.57539,
2016-12-29, 16:17:04,VALID,918.813,VALID,0,VALID,70.8901,VALID,202.312,VALID,23.1704,VALID,126,VALID,2.93867,
2016-12-29, 16:18:04,VALID,918.836,VALID,0,VALID,72.0108,VALID,200.055,VALID,23.1119,VALID,136,VALID,1.92695,
2016-12-29, 16:19:04,VALID,918.81,VALID,0,VALID,72.9256,VALID,191.782,VALID,23.229,VALID,118,VALID,3.16328,
2016-12-29, 16:20:04,VALID,918.825,VALID,0,VALID,70.5852,VALID,170.939,VALID,23.2094,VALID,100,VALID,2.87266,
2016-12-29, 16:21:04,VALID,918.845,VALID,0,VALID,72.2395,VALID,175.989,VALID,23.0728,VALID,114,VALID,1.38711,
2016-12-29, 16:22:04,VALID,918.855,VALID,0,VALID,72.2395,VALID,195.221,VALID,23.0551,VALID,117,VALID,2.61094,
2016-12-29, 16:23:04,VALID,918.837,VALID,0,VALID,72.9485,VALID,206.824,VALID,23.016,VALID,87,VALID,2.98438,
2016-12-29, 16:24:04,VALID,918.839,VALID,0,VALID,74.1149,VALID,196.08,VALID,22.9948,VALID,117,VALID,2.31797,
2016-12-29, 16:25:04,VALID,918.89,VALID,0,VALID,73.627,VALID,178.46,VALID,22.9948,VALID,95,VALID,3.60234,
2016-12-29, 16:26:04,VALID,918.894,VALID,0,VALID,73.2153,VALID,187.162,VALID,23.0338,VALID,99,VALID,2.20039,
2016-12-29, 16:27:04,VALID,918.89,VALID,0,VALID,70.9435,VALID,185.766,VALID,23.2485,VALID,116,VALID,2.14922,
2016-12-29, 16:28:04,VALID,918.911,VALID,0,VALID,71.439,VALID,182.865,VALID,23.307,VALID,116,VALID,2.13789,
2016-12-29, 16:29:04,VALID,918.894,VALID,0,VALID,70.4404,VALID,183.724,VALID,23.4046,VALID,110,VALID,2.43828,
2016-12-29, 16:30:04,VALID,918.896,VALID,0,VALID,69.4951,VALID,179.319,VALID,23.4437,VALID,103,VALID,1.53867,
2016-12-29, 16:31:04,VALID,918.883,VALID,0,VALID,72.4529,VALID,200.808,VALID,23.6388,VALID,98,VALID,2.20547,
2016-12-29, 16:32:04,VALID,918.925,VALID,0,VALID,70.4937,VALID,220.684,VALID,23.7364,VALID,133,VALID,2.58008,
2016-12-29, 16:33:04,VALID,918.92,VALID,0,VALID,68.2219,VALID,215.312,VALID,23.6797,VALID,150,VALID,2.13281,
2016-12-29, 16:34:04,VALID,918.908,VALID,0,VALID,69.8152,VALID,168.36,VALID,23.6584,VALID,103,VALID,1.4168,
2016-12-29, 16:36:04,VALID,918.92,VALID,0,VALID,69.274,VALID,177.815,VALID,23.4046,VALID,99,VALID,1.92305,
2016-12-29, 16:37:04,VALID,918.94,VALID,0,VALID,71.0579,VALID,237.875,VALID,23.2875,VALID,142,VALID,1.84297,
2016-12-29, 16:38:04,VALID,918.953,VALID,0,VALID,71.6449,VALID,328.34,VALID,23.3265,VALID,108,VALID,0.00078125,
2016-12-29, 16:39:04,VALID,918.919,VALID,0,VALID,70.852,VALID,303.414,VALID,23.3478,VALID,110,VALID,0.153516,
2016-12-29, 16:40:04,VALID,918.926,VALID,0,VALID,69.2511,VALID,244.321,VALID,23.3461,VALID,102,VALID,2.36445,
2016-12-29, 16:41:04,VALID,918.919,VALID,0,VALID,75.1211,VALID,239.486,VALID,23.3656,VALID,71,VALID,0.826563,
2016-12-29, 16:42:04,VALID,918.884,VALID,0,VALID,71.7592,VALID,403.227,VALID,23.4046,VALID,62,VALID,1.64531,
2016-12-29, 16:43:04,VALID,918.916,VALID,0,VALID,71.6677,VALID,226.056,VALID,23.4827,VALID,68,VALID,2.8332,
2016-12-29, 16:44:04,VALID,918.859,VALID,0,VALID,70.2117,VALID,207.039,VALID,23.3851,VALID,76,VALID,2.73047,
2016-12-29, 16:45:04,VALID,918.858,VALID,0,VALID,71.5915,VALID,240.991,VALID,23.229,VALID,63,VALID,2.04766,
2016-12-29, 16:46:04,VALID,918.867,VALID,0,VALID,73.444,VALID,310.827,VALID,23.1314,VALID,63,VALID,3.05352,
2016-12-29, 16:47:04,VALID,918.881,VALID,0,VALID,75.1135,VALID,404.409,VALID,23.0728,VALID,53,VALID,2.91602,
2016-12-29, 16:48:04,VALID,918.936,VALID,0,VALID,72.552,VALID,172.336,VALID,23.0924,VALID,83,VALID,3.85742,
2016-12-29, 16:50:04,VALID,918.891,VALID,0,VALID,72.4834,VALID,162.344,VALID,22.8989,VALID,87,VALID,2.6832,
2016-12-29, 16:51:04,VALID,918.936,VALID,0,VALID,72.8494,VALID,197.369,VALID,22.8387,VALID,106,VALID,2.46406,
2016-12-29, 16:52:04,VALID,918.886,VALID,0,VALID,73.6803,VALID,429.013,VALID,22.8404,VALID,79,VALID,2.88867,
2016-12-29, 16:53:04,VALID,918.819,VALID,0,VALID,71.9879,VALID,293.314,VALID,22.938,VALID,85,VALID,3.39414,
2016-12-29, 16:54:04,VALID,918.905,VALID,0,VALID,73.7642,VALID,245.288,VALID,22.938,VALID,73,VALID,3.37852,
2016-12-29, 16:55:04,VALID,918.875,VALID,0,VALID,73.0552,VALID,175.989,VALID,22.9575,VALID,81,VALID,3.41836,
2016-12-29, 16:56:04,VALID,918.877,VALID,0,VALID,74.4503,VALID,689.342,VALID,22.938,VALID,73,VALID,2.6,
2016-12-29, 16:57:04,VALID,918.863,VALID,0,VALID,73.8709,VALID,435.459,VALID,23.0178,VALID,54,VALID,2.30469,
2016-12-29, 16:58:04,VALID,918.883,VALID,0,VALID,73.7718,VALID,276.016,VALID,23.1917,VALID,38,VALID,0.824609,
2016-12-29, 16:59:04,VALID,918.852,VALID,0,VALID,73.3982,VALID,387.11,VALID,23.4064,VALID,27,VALID,0.0941406,
2016-12-29, 17:00:04,VALID,918.83,VALID,0,VALID,72.552,VALID,403.656,VALID,23.6602,VALID,23,VALID,1.19492,
2016-12-29, 17:01:04,VALID,918.814,VALID,0,VALID,69.0377,VALID,369.598,VALID,23.7968,VALID,74,VALID,1.00117,
2016-12-29, 17:02:04,VALID,918.816,VALID,0,VALID,70.8596,VALID,702.773,VALID,23.8749,VALID,61,VALID,1.22734,
2016-12-29, 17:03:04,VALID,918.849,VALID,0,VALID,69.2435,VALID,553.429,VALID,24.0311,VALID,109,VALID,1.85469,
2016-12-29, 17:04:04,VALID,918.835,VALID,0,VALID,69.6856,VALID,257.966,VALID,24.0311,VALID,95,VALID,2.07969,
2016-12-29, 17:05:04,VALID,918.776,VALID,0,VALID,67.9628,VALID,293.422,VALID,23.9121,VALID,99,VALID,2.25117,
2016-12-29, 17:06:04,VALID,918.787,VALID,0,VALID,70.3184,VALID,734.253,VALID,24.0097,VALID,106,VALID,0.0914062,
2016-12-29, 17:07:04,VALID,918.777,VALID,0,VALID,68.6184,VALID,738.98,VALID,24.283,VALID,55,VALID,1.51172,
2016-12-29, 17:08:04,VALID,918.818,VALID,0,VALID,69.1368,VALID,255.065,VALID,24.5954,VALID,84,VALID,1.50625,
2016-12-29, 17:09:04,VALID,918.783,VALID,0,VALID,66.6896,VALID,260.545,VALID,24.5564,VALID,84,VALID,1.73047,
2016-12-29, 17:10:04,VALID,918.807,VALID,0,VALID,67.3834,VALID,721.36,VALID,24.4392,VALID,93,VALID,1.16211,
2016-12-29, 17:11:04,VALID,918.81,VALID,0,VALID,65.7977,VALID,233.04,VALID,24.5173,VALID,95,VALID,0.632031,
2016-12-29, 17:12:04,VALID,918.781,VALID,0,VALID,66.8192,VALID,709.434,VALID,24.5759,VALID,149,VALID,1.94062,
2016-12-29, 17:13:04,VALID,918.776,VALID,0,VALID,67.1013,VALID,697.401,VALID,24.6735,VALID,52,VALID,2.57852,
2016-12-29, 17:14:04,VALID,918.755,VALID,0,VALID,65.0811,VALID,273.76,VALID,24.5545,VALID,147,VALID,3.58516,
2016-12-29, 17:15:04,VALID,918.783,VALID,0,VALID,66.2475,VALID,303.736,VALID,24.4002,VALID,131,VALID,3.45898,
2016-12-29, 17:16:04,VALID,918.77,VALID,0,VALID,66.6744,VALID,755.849,VALID,24.2031,VALID,168,VALID,4.55664,
2016-12-29, 17:17:04,VALID,918.794,VALID,0,VALID,70.0135,VALID,730.492,VALID,24.4002,VALID,122,VALID,2.42383,
2016-12-29, 17:18:04,VALID,918.799,VALID,0,VALID,68.5421,VALID,711.153,VALID,24.5564,VALID,110,VALID,2.46055,
2016-12-29, 17:19:04,VALID,918.768,VALID,0,VALID,65.104,VALID,716.955,VALID,24.535,VALID,126,VALID,1.91914,
2016-12-29, 17:20:04,VALID,918.782,VALID,0,VALID,62.9084,VALID,700.301,VALID,24.654,VALID,87,VALID,2.67461,
2016-12-29, 17:21:04,VALID,918.721,VALID,0,VALID,66.2704,VALID,745.749,VALID,24.6345,VALID,82,VALID,1.96797,
2016-12-29, 17:22:04,VALID,918.705,VALID,0,VALID,67.5663,VALID,739.303,VALID,24.654,VALID,69,VALID,2.6625,
2016-12-29, 17:23:04,VALID,918.733,VALID,0,VALID,65.2488,VALID,217.246,VALID,24.5173,VALID,137,VALID,2.33086,
2016-12-29, 17:24:04,VALID,918.676,VALID,0,VALID,65.0659,VALID,230.676,VALID,24.4411,VALID,143,VALID,3.02148,
2016-12-29, 17:25:04,VALID,918.69,VALID,0,VALID,67.6045,VALID,719.533,VALID,24.3825,VALID,151,VALID,2.81797,
2016-12-29, 17:26:04,VALID,918.68,VALID,0,VALID,63.9223,VALID,704.277,VALID,24.5564,VALID,148,VALID,3.90273,
2016-12-29, 17:27:04,VALID,918.68,VALID,0,VALID,67.0098,VALID,669.788,VALID,24.6149,VALID,135,VALID,2.49648,
2016-12-29, 17:28:04,VALID,918.652,VALID,0,VALID,67.4367,VALID,692.351,VALID,24.8902,VALID,100,VALID,1.12695,
2016-12-29, 17:29:04,VALID,918.624,VALID,0,VALID,62.5501,VALID,695.252,VALID,25.0836,VALID,198,VALID,1.38398,
2016-12-29, 17:30:04,VALID,918.617,VALID,0,VALID,61.9403,VALID,703.74,VALID,25.2593,VALID,92,VALID,2.39023,
2016-12-29, 17:31:04,VALID,918.645,VALID,0,VALID,63.6174,VALID,717.277,VALID,25.1031,VALID,141,VALID,2.79688,
2016-12-29, 17:32:04,VALID,918.596,VALID,0,VALID,66.1408,VALID,247.652,VALID,25.0445,VALID,101,VALID,1.49453,
2016-12-29, 17:33:04,VALID,918.59,VALID,0,VALID,64.0443,VALID,359.391,VALID,24.9292,VALID,105,VALID,2.58516,
2016-12-29, 17:34:04,VALID,918.583,VALID,0,VALID,65.6071,VALID,275.587,VALID,24.7126,VALID,74,VALID,1.08047,
2016-12-29, 17:35:04,VALID,918.558,VALID,0,VALID,64.8219,VALID,743.493,VALID,24.693,VALID,139,VALID,3.0125,
2016-12-29, 17:36:04,VALID,918.546,VALID,0,VALID,63.9452,VALID,726.517,VALID,24.8102,VALID,128,VALID,2.77227,
2016-12-29, 17:37:04,VALID,918.546,VALID,0,VALID,62.512,VALID,716.74,VALID,24.9469,VALID,110,VALID,2.42539,
2016-12-29, 17:38:04,VALID,918.514,VALID,0,VALID,63.5564,VALID,712.657,VALID,24.8278,VALID,122,VALID,0.789063,
2016-12-29, 17:39:04,VALID,918.5,VALID,0,VALID,62.1613,VALID,710.723,VALID,25.0055,VALID,125,VALID,2.97031,
2016-12-29, 17:40:04,VALID,918.498,VALID,0,VALID,64.2959,VALID,701.591,VALID,24.7907,VALID,133,VALID,4.03398,
2016-12-29, 17:41:04,VALID,918.474,VALID,0,VALID,63.7165,VALID,707.93,VALID,24.8492,VALID,116,VALID,2.70039,
2016-12-29, 17:42:04,VALID,918.49,VALID,0,VALID,65.4775,VALID,704.921,VALID,24.9097,VALID,123,VALID,3.79688,
2016-12-29, 17:43:04,VALID,918.501,VALID,0,VALID,63.3506,VALID,701.698,VALID,24.8297,VALID,126,VALID,3.92969,
2016-12-29, 17:44:04,VALID,918.45,VALID,0,VALID,63.0152,VALID,721.252,VALID,24.7693,VALID,157,VALID,3.0043,
2016-12-29, 17:45:04,VALID,918.469,VALID,0,VALID,62.1613,VALID,657.11,VALID,24.9078,VALID,122,VALID,4.53008,
2016-12-29, 17:46:04,VALID,918.465,VALID,0,VALID,61.3151,VALID,434.922,VALID,24.8883,VALID,134,VALID,2.30547,
2016-12-29, 17:47:04,VALID,918.44,VALID,0,VALID,64.4941,VALID,728.773,VALID,25.0055,VALID,139,VALID,4.20977,
2016-12-29, 17:48:04,VALID,918.419,VALID,0,VALID,64.3035,VALID,679.673,VALID,25.1598,VALID,158,VALID,2.46719,
2016-12-29, 17:49:04,VALID,918.361,VALID,0,VALID,61.6048,VALID,719.211,VALID,25.2788,VALID,155,VALID,2.37969,
2016-12-29, 17:50:04,VALID,918.39,VALID,0,VALID,59.8743,VALID,710.508,VALID,25.2984,VALID,163,VALID,1.26133,
2016-12-29, 17:51:04,VALID,918.325,VALID,0,VALID,64.7533,VALID,707.07,VALID,25.396,VALID,113,VALID,1.96445,
2016-12-29, 17:52:04,VALID,918.322,VALID,0,VALID,59.4017,VALID,705.351,VALID,25.4546,VALID,126,VALID,4.34844,
2016-12-29, 17:53:04,VALID,918.321,VALID,0,VALID,60.8272,VALID,714.806,VALID,25.2965,VALID,142,VALID,2.53867,
2016-12-29, 17:54:04,VALID,918.338,VALID,0,VALID,61.2465,VALID,723.724,VALID,25.1598,VALID,103,VALID,4.5125,
2016-12-29, 17:55:04,VALID,918.315,VALID,0,VALID,60.4842,VALID,723.938,VALID,25.1207,VALID,137,VALID,2.00508,
2016-12-29, 17:56:04,VALID,918.312,VALID,0,VALID,60.7967,VALID,729.74,VALID,25.1226,VALID,113,VALID,3.48242,
2016-12-29, 17:57:04,VALID,918.282,VALID,0,VALID,60.4003,VALID,725.443,VALID,24.9859,VALID,125,VALID,2.575,